This is the latest recevied weather packets stored in our database for station/object N5COP-13. If no packets are shown the sender has not sent any weather packets the latest 10 day(s).
| Time | Temp. | Humidity | Pressure | Rain* | Wind** | Luminosity | Snow |
|---|---|---|---|---|---|---|---|
| 1777765486 | 22.22° C | 22% | 1019.6 hPa | 0 mm | - | 219 W/m² | - |
| 1777765184 | 21.67° C | 22% | 1019.6 hPa | 0 mm | - | 237 W/m² | - |
| 1777764879 | 21.67° C | 22% | 1019.6 hPa | 0 mm | - | 255 W/m² | - |
| 1777764576 | 21.11° C | 22% | 1019.9 hPa | 0 mm | - | 273 W/m² | - |
| 1777764272 | 21.11° C | 22% | 1019.8 hPa | 0 mm | - | 96 W/m² | - |
| 1777763969 | 21.67° C | 22% | 1019.7 hPa | 0 mm | - | 77 W/m² | - |
| 1777763667 | 21.11° C | 22% | 1019.7 hPa | 0 mm | - | 325 W/m² | - |
| 1777763365 | 21.11° C | 22% | 1019.7 hPa | 0 mm | - | 126 W/m² | - |
| 1777763063 | 21.67° C | 22% | 1019.9 hPa | 0 mm | - | 318 W/m² | - |
| 1777762760 | 21.67° C | 22% | 1019.7 hPa | 0 mm | - | 377 W/m² | - |
| 1777762451 | 21.67° C | 22% | 1019.7 hPa | 0 mm | - | 397 W/m² | - |
| 1777762148 | 22.22° C | 22% | 1019.7 hPa | 0 mm | - | 402 W/m² | - |
| 1777761843 | 22.78° C | 21% | 1019.9 hPa | 0 mm | - | 434 W/m² | - |
| 1777761541 | 22.22° C | 22% | 1019.9 hPa | 0 mm | - | 470 W/m² | - |
| 1777761239 | 21.11° C | 22% | 1019.8 hPa | 0 mm | - | 492 W/m² | - |
| 1777760936 | 21.11° C | 22% | 1019.9 hPa | 0 mm | - | 323 W/m² | - |
| 1777760634 | 21.11° C | 21% | 1019.9 hPa | 0 mm | - | 125 W/m² | - |
| 1777760329 | 21.67° C | 21% | 1019.9 hPa | 0 mm | - | 137 W/m² | - |
| 1777760026 | 22.78° C | 21% | 1020.1 hPa | 0 mm | - | 121 W/m² | - |
| 1777759723 | 22.22° C | 21% | 1020 hPa | 0 mm | - | 551 W/m² | - |
| 1777759419 | 22.78° C | 21% | 1020 hPa | 0 mm | - | 562 W/m² | - |
| 1777759116 | 22.22° C | 21% | 1020.1 hPa | 0 mm | - | 575 W/m² | - |
| 1777758813 | 22.22° C | 21% | 1020.1 hPa | 0 mm | - | 611 W/m² | - |
| 1777758509 | 22.78° C | 21% | 1020.1 hPa | 0 mm | - | 643 W/m² | - |
| 1777758206 | 22.78° C | 22% | 1020.3 hPa | 0 mm | - | 662 W/m² | - |
* Rain latest hour (hover to see other rain measurements)
** Current wind speed in m/s (hover to see current wind gust speed)